Regional Weather Roundup
Issued by NWS

Home | Current Version | Previous Version | Text Only | Print | Product List | Glossary On
Versions: 1 2 3 4 5 6 7 8 9 10 11 12 13 14 15 16 17 18 19 20 21 22 23 24 25 26 27 28 29 30 31 32 33 34 35 36 37 38 39 40 41 42 43 44 45 46 47 48 49 50
000
ASUS43 KDTX 281101
RWRMI
MICHIGAN HOURLY REGIONAL WEATHER ROUNDUP
NATIONAL WEATHER SERVICE DETROIT/PONTIAC MI
600 AM EST FRI NOV 28 2014

NOTE: "FAIR" INDICATES FEW OR NO CLOUDS BELOW 12,000 FEET WITH NO
SIGNIFICANT WEATHER AND/OR OBSTRUCTION TO VISIBILITY.

MIZ047>049-052>055-059>063-066>070-074>076-081>083-281200-
SOUTHEAST LOWER MICHIGAN

CITY           SKY/WX    TMP DP  RH WIND       PRES   REMARKS
ADRIAN         CLEAR     14   8  77 CALM      30.35S
ALMA           MOCLDY    18  11  74 CALM      30.33F
ANN ARBOR      CLEAR     10   6  84 SW3       30.34R
BAD AXE        CLOUDY    19  12  72 NW8       30.30S WCI   9
DETROIT CITY   CLEAR     20   7  57 W6        30.35S WCI  12
DETROIT        MOCLDY    19   6  57 NW6       30.36S WCI  11
FLINT          MOCLDY    18  10  71 W3        30.33S
GROSSE ILE     CLEAR     19   9  63 NW9       30.35R WCI   9
HILLSDALE      MOCLDY    15  13  92 CALM      30.31R
HOWELL         CLEAR     16  11  83 CALM      30.31S

CITY           SKY/WX    TMP DP  RH WIND       PRES   REMARKS
JACKSON        PTCLDY    13   9  84 W3        30.32S
LAMBERTVILLE   CLEAR     16   9  73 CALM      30.37R
LANSING        PTCLDY    17  11  77 SW3       30.33S
LAPEER         FAIR      17  10  73 CALM      30.32S
MASON          PTCLDY    18  11  75 CALM      30.32S
PONTIAC        PTCLDY    15   7  70 W7        30.31R WCI   5
PORT HOPE        N/A     20   9  62 W8        30.29R WCI  10
PORT HURON     MOCLDY    19   9  63 NW9       30.33R WCI   9
TRI CITIES     MOCLDY    19  11  70 W6        30.33F WCI  11
TROY           PTCLDY    20   9  60 W3        30.35S
SAGINAW HB     MOCLDY    19  14  79 W5        30.33S WCI  13
$$
MIZ043>046-050>051-056>058-064>065-071>073-077>080-281200-
SOUTHWEST LOWER MICHIGAN

CITY           SKY/WX    TMP DP  RH WIND       PRES   REMARKS
BATTLE CREEK   CLOUDY    22  14  71 S5        30.33S WCI  16
BENTON HARBOR  CLOUDY    24  15  68 SW9       30.34F WCI  14
BIG RAPIDS     CLOUDY    18  15  90 CALM      30.29F
COLDWATER      CLOUDY    21  18  88 CALM      30.33S
FREMONT        CLOUDY    19  16  87 S3        30.32S
HOLLAND        CLOUDY    21  16  81 SE3       30.34S
GRAND RAPIDS   CLOUDY    20  13  74 S3        30.34R
IONIA          CLOUDY    20  13  73 SW3       30.32S
KALAMAZOO      CLOUDY    22  17  81 SW5       30.34R WCI  16
LUDINGTON      CLOUDY    20  16  83 CALM      30.29F
MARSHALL       CLOUDY    17  12  80 CALM      30.32S
MOUNT PLEASANT MOCLDY    19  10  67 CALM      30.31S
MUSKEGON       FLURRIES  20  15  81 SE7       30.33F WCI  11
SOUTH HAVEN    CLOUDY    22  20  90 CALM      30.33F
$$
MIZ016>042-281200-
NORTHERN LOWER MICHIGAN

CITY           SKY/WX    TMP DP  RH WIND       PRES   REMARKS
ALPENA         CLOUDY    16  10  77 W6        30.27F WCI   7
BEAVER ISLAND  CLOUDY    20  12  71 W8        30.25F WCI  10
BELLAIRE       FLURRIES  20  14  78 SW5       30.27F WCI  14
CADILLAC       CLOUDY    13  11  91 SW3       30.24F
CHARLEVOIX     FLURRIES  21  13  71 W8        30.28F WCI  11
FRANKFORT      CLOUDY    21  13  71 SW6       30.27F WCI  14
GAYLORD        LGT SNOW  13  11  92 SW3       30.22F FOG
GRAYLING       CLOUDY    14  11  86 SW5       30.25F WCI   7
HARBOR SPRINGS FLURRIES  18  12  80 CALM      30.25F
HOUGHTON LAKE  CLOUDY    12   8  84 CALM      30.27S
MANISTEE       CLOUDY    18  12  79 S5        30.30F WCI  11
OSCODA         CLOUDY    15  11  87 W6        30.30S WCI   6
PELLSTON       CLOUDY    17  12  80 CALM      30.26F
ROGERS CITY    CLOUDY    17  14  89 W6        30.27F WCI   9
TRAVERSE CITY  CLOUDY    18  12  77 VRB3      30.27F
$$
MIZ007>008-015-281200-
EASTERN UPPER MICHIGAN

CITY           SKY/WX    TMP DP  RH WIND       PRES   REMARKS
KINROSS        MOCLDY     0   0 100 SE6       30.24F WCI -12
MACKINAC ISLAN CLOUDY    17  13  86 CALM      30.24F
NEWBERRY       CLOUDY    10   7  87 SW8       30.21F WCI  -1
S. S. MARIE    MOCLDY     1  -3  83 E6        30.22F WCI -10
MUNISING         N/A     11   2  67 S8        30.24F WCI  -1
$$
MIZ004>006-011>014-085-281200-
CENTRAL UPPER MICHIGAN

CITY           SKY/WX    TMP DP  RH WIND       PRES   REMARKS
MANISTIQUE     CLOUDY     8   3  82 W3        30.25F
ESCANABA       MOCLDY     5   1  85 CALM      30.26S
MENOMINEE      CLOUDY     7   3  85 CALM      30.26F
SAWYER-GWINN   MOCLDY     3  -1  81 CALM      30.19F
$$
MIZ001>003-009>011-084-281200-
WESTERN UPPER MICHIGAN

CITY           SKY/WX    TMP DP  RH WIND       PRES   REMARKS
IRON MOUNTAIN  CLOUDY     1  -4  79 CALM      30.19F
HOUGHTON       CLOUDY     7   0  73 SW5       30.16F WCI  -2
COPPER HARBOR    N/A     12   4  70 W9        30.18F WCI   0
IRONWOOD       CLOUDY     7   1  78 S3        30.13S
$$

ABBREVIATIONS USED IN REMARKS
   TC - TEMPERATURE IN CELSIUS
  WCI - WIND CHILL INDEX
   HX - HEAT INDEX
  VSB - VISIBILITY




USA.gov is the U.S. government's official web portal to all federal, state and local government web resources and services.